This is the latest recevied weather packets stored in our database for station/object K1RFS. If no packets are shown the sender has not sent any weather packets the latest 10 day(s).
| Time | Temp. | Humidity | Pressure | Rain* | Wind** | Luminosity | Snow |
|---|---|---|---|---|---|---|---|
| 1787689212 | 35° C | 23% | 1008.4 hPa | 0 mm | - | 256 W/m² | - |
| 1787688907 | 35.56° C | 23% | 1008.5 hPa | 0 mm | - | 723 W/m² | - |
| 1787688603 | 35° C | 23% | 1008.7 hPa | 0 mm | - | 711 W/m² | - |
| 1787688303 | 35° C | 24% | 1008.6 hPa | 0 mm | - | 711 W/m² | - |
| 1787687998 | 35° C | 23% | 1008.5 hPa | 0 mm | - | 670 W/m² | - |
| 1787687694 | 34.44° C | 25% | 1008.8 hPa | 0 mm | - | 613 W/m² | - |
| 1787687389 | 34.44° C | 25% | 1008.8 hPa | 0 mm | - | 658 W/m² | - |
| 1787687084 | 33.89° C | 26% | 1008.9 hPa | 0 mm | - | 664 W/m² | - |
| 1787686780 | 33.89° C | 25% | 1008.8 hPa | 0 mm | - | 551 W/m² | - |
| 1787686476 | 33.33° C | 26% | 1009 hPa | 0 mm | - | 631 W/m² | - |
| 1787686171 | 33.33° C | 26% | 1008.9 hPa | 0 mm | - | 596 W/m² | - |
| 1787685867 | 33.33° C | 25% | 1008.9 hPa | 0 mm | - | 613 W/m² | - |
| 1787685566 | 33.33° C | 25% | 1009 hPa | 0 mm | - | 595 W/m² | - |
| 1787685261 | 32.78° C | 25% | 1009.2 hPa | 0 mm | - | 603 W/m² | - |
| 1787684955 | 32.78° C | 26% | 1009.2 hPa | 0 mm | - | 607 W/m² | - |
| 1787684652 | 32.78° C | 26% | 1009.3 hPa | 0 mm | - | 609 W/m² | - |
| 1787684350 | 32.78° C | 26% | 1009.3 hPa | 0 mm | - | 607 W/m² | - |
| 1787684046 | 32.78° C | 26% | 1009.3 hPa | 0 mm | - | 580 W/m² | - |
| 1787683744 | 32.22° C | 27% | 1009.4 hPa | 0 mm | - | 570 W/m² | - |
| 1787683441 | 32.22° C | 27% | 1009.5 hPa | 0 mm | - | 563 W/m² | - |
| 1787683136 | 32.22° C | 27% | 1009.5 hPa | 0 mm | - | 585 W/m² | - |
| 1787682834 | 31.67° C | 27% | 1009.7 hPa | 0 mm | - | 585 W/m² | - |
| 1787682529 | 31.11° C | 28% | 1009.7 hPa | 0 mm | - | 581 W/m² | - |
| 1787682224 | 31.67° C | 28% | 1009.6 hPa | 0 mm | - | 573 W/m² | - |
| 1787681920 | 31.67° C | 28% | 1009.6 hPa | 0 mm | - | 569 W/m² | - |
* Rain latest hour (hover to see other rain measurements)
** Current wind speed in m/s (hover to see current wind gust speed)